Powrót do katalogu

STARLINK-30604

AktywnyŁącznośćVLEO
NORAD 58075·PAYLOAD·🇺🇸 United States

Wystrzelony Oct 18, 2023 z Cape Canaveral Space Force Station

Loading…

Następne Przeloty (najbliższe 24 godziny)

TLE

ŚwieżeSource: CelesTrak SupGP

Epoka: Sep 15, 2026, 03:00 UTC

1 58075C 23160A   26258.12548611 -.00019131  00000+0 -69278-3 0  2587
2 58075  42.9991  87.8954 0001433 267.8921 303.1246 15.27594383    15

Śledź STARLINK-30604 w czasie rzeczywistym z AllMySat

Download on the App Store